CTV390 WIII-WIOO

Flight info

Callsign CTV390
Flight time 1h 10m
Altitude 39000
Route WIII/07R N0457F350 ABAS2B ABASA W14 LAKUN LAKU1A WIOO/15
Aircraft A20N/M-SDE2E3FGHIRWXY/LB1

Departure

Time 2026-04-25 09:04
Airport Soekarno-Hatta International Airport (WIII)

Arrival

Time 2026-04-25 10:15
Airport Supadio International Airport (WIOO)
Time Latitude Longitude Altitude Speed Heading
2026-04-25 08:41 -6.13224 106.65326 37 ft 0 kts 323°
2026-04-25 08:52 -6.13229 106.65330 37 ft 4 kts 323°
2026-04-25 08:52 -6.13251 106.65347 35 ft 4 kts 319°
2026-04-25 08:52 -6.13269 106.65366 37 ft 4 kts 299°
2026-04-25 08:53 -6.13275 106.65385 37 ft 0 kts 253°
2026-04-25 08:56 -6.13276 106.65379 37 ft 2 kts 253°
2026-04-25 08:56 -6.13286 106.65352 37 ft 6 kts 246°
2026-04-25 08:57 -6.13307 106.65304 37 ft 9 kts 247°
2026-04-25 08:57 -6.13336 106.65236 37 ft 12 kts 240°
2026-04-25 08:57 -6.13417 106.65226 37 ft 14 kts 159°
2026-04-25 08:57 -6.13515 106.65265 36 ft 16 kts 159°
2026-04-25 08:58 -6.13619 106.65306 38 ft 14 kts 158°
2026-04-25 08:58 -6.13694 106.65262 38 ft 15 kts 248°
2026-04-25 08:58 -6.13737 106.65153 38 ft 18 kts 248°
2026-04-25 08:58 -6.13786 106.65028 38 ft 20 kts 248°
2026-04-25 08:59 -6.13841 106.64892 38 ft 22 kts 248°
2026-04-25 08:59 -6.13899 106.64747 38 ft 20 kts 248°
2026-04-25 08:59 -6.13954 106.64610 38 ft 22 kts 248°
2026-04-25 08:59 -6.14011 106.64469 36 ft 21 kts 248°
2026-04-25 09:00 -6.14063 106.64340 38 ft 16 kts 244°
2026-04-25 09:00 -6.14101 106.64301 38 ft 0 kts 206°
2026-04-25 09:02 -6.14105 106.64300 38 ft 2 kts 204°
2026-04-25 09:02 -6.14125 106.64295 39 ft 4 kts 188°
2026-04-25 09:03 -6.14166 106.64306 39 ft 9 kts 148°
2026-04-25 09:03 -6.14209 106.64377 40 ft 16 kts 112°
2026-04-25 09:03 -6.14205 106.64473 38 ft 0 kts 68°
2026-04-25 09:03 -6.14198 106.64490 38 ft 8 kts 68°
2026-04-25 09:04 -6.14062 106.64822 38 ft 94 kts 68°
2026-04-25 09:04 -6.13729 106.65661 51 ft 160 kts 67°
2026-04-25 09:04 -6.13322 106.66709 763 ft 161 kts 66°
2026-04-25 09:04 -6.12882 106.67809 1300 ft 179 kts 65°
2026-04-25 09:05 -6.12384 106.69024 1748 ft 198 kts 66°
2026-04-25 09:05 -6.11838 106.70368 2193 ft 219 kts 67°
2026-04-25 09:05 -6.11252 106.71844 2739 ft 233 kts 68°
2026-04-25 09:05 -6.10743 106.73395 3550 ft 235 kts 77°
2026-04-25 09:06 -6.10502 106.75028 4360 ft 238 kts 86°
2026-04-25 09:06 -6.10471 106.76716 5074 ft 249 kts 88°
2026-04-25 09:06 -6.10436 106.78501 5629 ft 266 kts 88°
2026-04-25 09:06 -6.10391 106.80386 6211 ft 274 kts 88°
2026-04-25 09:07 -6.10344 106.82280 6336 ft 269 kts 88°
2026-04-25 09:07 -6.10299 106.84163 6456 ft 270 kts 88°
2026-04-25 09:07 -6.10252 106.86057 6580 ft 272 kts 88°
2026-04-25 09:07 -6.10204 106.87967 6689 ft 273 kts 88°
2026-04-25 09:08 -6.10155 106.89871 6811 ft 272 kts 88°
2026-04-25 09:08 -6.10107 106.91776 6940 ft 273 kts 88°
2026-04-25 09:08 -6.10059 106.93691 6998 ft 275 kts 88°
2026-04-25 09:08 -6.10027 106.94961 7002 ft 275 kts 88°
2026-04-25 09:09 -6.09965 106.97506 7007 ft 274 kts 88°
2026-04-25 09:09 -6.09917 106.99421 7008 ft 274 kts 88°
2026-04-25 09:09 -6.09885 107.00717 7000 ft 274 kts 88°
2026-04-25 09:09 -6.09824 107.03252 7000 ft 274 kts 88°
2026-04-25 09:10 -6.09792 107.04546 7007 ft 274 kts 89°
2026-04-25 09:10 -6.09776 107.06461 7005 ft 274 kts 90°
2026-04-25 09:10 -6.09783 107.08377 6999 ft 274 kts 90°
2026-04-25 09:10 -6.09793 107.10295 7008 ft 274 kts 90°
2026-04-25 09:11 -6.09751 107.14098 6994 ft 273 kts 81°
2026-04-25 09:11 -6.09059 107.15866 7051 ft 278 kts 55°
2026-04-25 09:11 -6.07609 107.17155 7579 ft 283 kts 28°
2026-04-25 09:12 -6.05712 107.17683 8416 ft 288 kts
2026-04-25 09:12 -6.03692 107.17640 9178 ft 292 kts 359°
2026-04-25 09:12 -6.01645 107.17531 9927 ft 296 kts 359°
2026-04-25 09:12 -5.99554 107.17409 10461 ft 310 kts 358°
2026-04-25 09:13 -5.97321 107.17285 10684 ft 332 kts 359°
2026-04-25 09:13 -5.94950 107.17157 11028 ft 347 kts 359°
2026-04-25 09:13 -5.92523 107.17029 11715 ft 351 kts 358°
2026-04-25 09:13 -5.90068 107.16899 12429 ft 355 kts 358°
2026-04-25 09:14 -5.87619 107.16764 13131 ft 358 kts 358°
2026-04-25 09:14 -5.85121 107.16625 13812 ft 361 kts 358°
2026-04-25 09:14 -5.82597 107.16483 14481 ft 365 kts 358°
2026-04-25 09:14 -5.80051 107.16342 15148 ft 368 kts 358°
2026-04-25 09:15 -5.77471 107.16198 15737 ft 373 kts 358°
2026-04-25 09:15 -5.74875 107.16054 16351 ft 376 kts 358°
2026-04-25 09:15 -5.72253 107.15911 16952 ft 379 kts 358°
2026-04-25 09:15 -5.69606 107.15767 17516 ft 382 kts 359°
2026-04-25 09:16 -5.66937 107.15622 17946 ft 387 kts 359°
2026-04-25 09:16 -5.64251 107.15477 18050 ft 386 kts 359°
2026-04-25 09:16 -5.61570 107.15332 18153 ft 386 kts 359°
2026-04-25 09:16 -5.58875 107.15186 18255 ft 388 kts 359°
2026-04-25 09:17 -5.53488 107.14892 18339 ft 387 kts 359°
2026-04-25 09:17 -5.50834 107.14747 18333 ft 388 kts 359°
2026-04-25 09:17 -5.48132 107.14648 18338 ft 388 kts
2026-04-25 09:18 -5.45435 107.14882 18745 ft 390 kts 11°
2026-04-25 09:18 -5.42780 107.15430 19321 ft 391 kts 14°
2026-04-25 09:18 -5.40114 107.16029 19814 ft 395 kts 14°
2026-04-25 09:18 -5.37412 107.16628 20281 ft 399 kts 14°
2026-04-25 09:19 -5.34690 107.17230 20755 ft 402 kts 14°
2026-04-25 09:19 -5.31949 107.17837 21203 ft 405 kts 14°
2026-04-25 09:19 -5.29185 107.18450 21656 ft 408 kts 14°
2026-04-25 09:19 -5.26394 107.19071 22060 ft 412 kts 14°
2026-04-25 09:20 -5.23584 107.19698 22482 ft 415 kts 14°
2026-04-25 09:20 -5.20755 107.20328 22889 ft 418 kts 14°
2026-04-25 09:20 -5.17901 107.20964 23290 ft 421 kts 14°
2026-04-25 09:20 -5.15026 107.21604 23666 ft 425 kts 14°
2026-04-25 09:21 -5.12130 107.22248 24054 ft 428 kts 13°
2026-04-25 09:21 -5.09214 107.22897 24424 ft 430 kts 13°
2026-04-25 09:21 -5.06277 107.23550 24794 ft 433 kts 13°
2026-04-25 09:21 -5.03325 107.24207 25146 ft 435 kts 14°
2026-04-25 09:22 -5.00360 107.24867 25486 ft 438 kts 14°
2026-04-25 09:22 -4.97376 107.25530 25688 ft 440 kts 14°
2026-04-25 09:22 -4.94427 107.26186 25783 ft 440 kts 14°
2026-04-25 09:22 -4.91431 107.26852 25882 ft 440 kts 14°
2026-04-25 09:23 -4.88435 107.27517 25995 ft 443 kts 14°
2026-04-25 09:23 -4.85418 107.28188 26342 ft 444 kts 14°
2026-04-25 09:23 -4.82395 107.28861 26672 ft 446 kts 14°
2026-04-25 09:23 -4.79358 107.29537 26974 ft 448 kts 14°
2026-04-25 09:24 -4.76306 107.30215 27263 ft 451 kts 14°
2026-04-25 09:24 -4.73234 107.30900 27568 ft 452 kts 14°
2026-04-25 09:24 -4.70148 107.31588 27853 ft 454 kts 14°
2026-04-25 09:24 -4.67050 107.32276 28120 ft 457 kts 14°
2026-04-25 09:25 -4.63941 107.32965 28403 ft 458 kts 14°
2026-04-25 09:25 -4.60824 107.33657 28666 ft 460 kts 14°
2026-04-25 09:25 -4.57688 107.34352 28928 ft 462 kts 14°
2026-04-25 09:25 -4.54540 107.35051 29167 ft 464 kts 14°
2026-04-25 09:26 -4.51383 107.35753 29427 ft 466 kts 14°
2026-04-25 09:26 -4.48212 107.36458 29673 ft 467 kts 14°
2026-04-25 09:26 -4.45032 107.37164 29921 ft 469 kts 14°
2026-04-25 09:26 -4.41841 107.37873 30172 ft 471 kts 14°
2026-04-25 09:27 -4.38639 107.38584 30427 ft 472 kts 14°
2026-04-25 09:27 -4.35421 107.39299 30686 ft 474 kts 14°
2026-04-25 09:27 -4.32202 107.40012 30948 ft 475 kts 14°
2026-04-25 09:27 -4.29015 107.40719 31277 ft 475 kts 14°
2026-04-25 09:28 -4.25795 107.41434 31631 ft 473 kts 14°
2026-04-25 09:28 -4.22571 107.42149 31999 ft 472 kts 13°
2026-04-25 09:28 -4.19370 107.42859 32329 ft 471 kts 13°
2026-04-25 09:28 -4.16173 107.43570 32666 ft 470 kts 13°
2026-04-25 09:29 -4.12988 107.44278 32973 ft 469 kts 13°
2026-04-25 09:29 -4.09803 107.44985 33275 ft 468 kts 13°
2026-04-25 09:29 -4.06626 107.45691 33571 ft 467 kts 13°
2026-04-25 09:29 -4.03456 107.46395 33871 ft 466 kts 13°
2026-04-25 09:30 -4.00297 107.47096 34161 ft 465 kts 13°
2026-04-25 09:30 -3.97140 107.47797 34424 ft 464 kts 13°
2026-04-25 09:30 -3.93994 107.48495 34678 ft 463 kts 13°
2026-04-25 09:30 -3.90889 107.49183 34919 ft 462 kts 12°
2026-04-25 09:31 -3.87756 107.49877 35164 ft 461 kts 13°
2026-04-25 09:31 -3.84624 107.50572 35397 ft 460 kts 12°
2026-04-25 09:31 -3.81496 107.51267 35629 ft 460 kts 12°
2026-04-25 09:31 -3.78373 107.51960 35842 ft 459 kts 12°
2026-04-25 09:32 -3.75255 107.52652 36096 ft 458 kts 12°
2026-04-25 09:32 -3.72148 107.53341 36336 ft 457 kts 12°
2026-04-25 09:32 -3.69043 107.54028 36520 ft 457 kts 12°
2026-04-25 09:32 -3.65937 107.54713 36740 ft 456 kts 12°
2026-04-25 09:33 -3.62851 107.55394 37082 ft 452 kts 12°
2026-04-25 09:33 -3.59785 107.56070 37379 ft 449 kts 12°
2026-04-25 09:33 -3.56742 107.56742 37678 ft 446 kts 12°
2026-04-25 09:33 -3.53719 107.57410 37881 ft 445 kts 12°
2026-04-25 09:34 -3.50687 107.58078 38016 ft 445 kts 12°
2026-04-25 09:34 -3.47654 107.58745 38164 ft 446 kts 12°
2026-04-25 09:34 -3.44625 107.59414 38324 ft 445 kts 12°
2026-04-25 09:34 -3.41641 107.60073 38479 ft 444 kts 12°
2026-04-25 09:35 -3.38619 107.60740 38611 ft 444 kts 12°
2026-04-25 09:35 -3.35601 107.61406 38729 ft 444 kts 12°
2026-04-25 09:35 -3.32577 107.62073 38818 ft 444 kts 12°
2026-04-25 09:36 -3.26547 107.63402 38851 ft 444 kts 12°
2026-04-25 09:36 -3.20518 107.64734 38851 ft 444 kts 12°
2026-04-25 09:37 -3.14482 107.66066 38850 ft 443 kts 12°
2026-04-25 09:37 -3.08483 107.67387 38851 ft 445 kts 12°
2026-04-25 09:38 -3.02435 107.68720 38856 ft 445 kts 12°
2026-04-25 09:38 -2.96383 107.70053 38852 ft 445 kts 12°
2026-04-25 09:39 -2.90325 107.71388 38854 ft 446 kts 12°
2026-04-25 09:39 -2.84269 107.72721 38864 ft 446 kts 12°
2026-04-25 09:40 -2.75211 107.74884 38860 ft 446 kts 18°
2026-04-25 09:40 -2.69478 107.77266 38855 ft 447 kts 27°
2026-04-25 09:41 -2.64124 107.80439 38856 ft 447 kts 31°
2026-04-25 09:41 -2.58807 107.83701 38861 ft 448 kts 31°
2026-04-25 09:42 -2.53492 107.86957 38857 ft 448 kts 31°
2026-04-25 09:42 -2.48170 107.90221 38858 ft 448 kts 31°
2026-04-25 09:43 -2.42847 107.93484 38858 ft 449 kts 31°
2026-04-25 09:43 -2.37519 107.96750 38862 ft 449 kts 31°
2026-04-25 09:44 -2.32189 108.00018 38861 ft 450 kts 31°
2026-04-25 09:44 -2.26882 108.03271 38861 ft 450 kts 31°
2026-04-25 09:45 -2.21530 108.06553 38865 ft 450 kts 31°
2026-04-25 09:45 -2.16179 108.09832 38869 ft 451 kts 31°
2026-04-25 09:46 -2.10827 108.13115 38872 ft 451 kts 31°
2026-04-25 09:46 -2.05476 108.16396 38859 ft 449 kts 31°
2026-04-25 09:47 -2.00145 108.19667 38859 ft 450 kts 31°
2026-04-25 09:47 -1.94838 108.22924 38861 ft 450 kts 31°
2026-04-25 09:48 -1.89467 108.26219 38859 ft 450 kts 31°
2026-04-25 09:48 -1.84131 108.29492 38860 ft 450 kts 31°
2026-04-25 09:49 -1.78825 108.32747 38858 ft 450 kts 31°
2026-04-25 09:49 -1.73485 108.36022 38860 ft 450 kts 31°
2026-04-25 09:50 -1.68144 108.39298 38857 ft 450 kts 31°
2026-04-25 09:50 -1.62800 108.42575 38856 ft 450 kts 31°
2026-04-25 09:51 -1.57458 108.45851 38855 ft 451 kts 31°
2026-04-25 09:51 -1.52120 108.49124 38692 ft 449 kts 31°
2026-04-25 09:52 -1.49457 108.50756 38171 ft 450 kts 31°
2026-04-25 09:52 -1.46781 108.52396 37376 ft 454 kts 31°
2026-04-25 09:52 -1.44083 108.54050 36448 ft 455 kts 31°
2026-04-25 09:52 -1.41382 108.55706 35398 ft 456 kts 31°
2026-04-25 09:53 -1.38662 108.57373 34171 ft 461 kts 31°
2026-04-25 09:53 -1.35918 108.59056 32899 ft 465 kts 31°
2026-04-25 09:53 -1.33138 108.60760 31481 ft 472 kts 31°
2026-04-25 09:53 -1.30313 108.62491 29886 ft 481 kts 31°
2026-04-25 09:54 -1.27428 108.64258 28313 ft 489 kts 32°
2026-04-25 09:54 -1.24514 108.66041 26889 ft 492 kts 32°
2026-04-25 09:54 -1.21631 108.67806 25518 ft 491 kts 33°
2026-04-25 09:54 -1.18729 108.69582 24197 ft 487 kts 33°
2026-04-25 09:55 -1.15853 108.71344 23008 ft 479 kts 33°
2026-04-25 09:55 -1.13052 108.73060 21982 ft 467 kts 33°
2026-04-25 09:55 -1.10307 108.74742 20780 ft 459 kts 33°
2026-04-25 09:55 -1.07606 108.76397 19666 ft 450 kts 33°
2026-04-25 09:56 -1.04962 108.78018 18544 ft 441 kts 33°
2026-04-25 09:56 -1.03240 108.79073 17815 ft 436 kts 33°
2026-04-25 09:56 -1.00679 108.80643 16691 ft 428 kts 33°
2026-04-25 09:56 -0.98163 108.82186 15524 ft 422 kts 33°
2026-04-25 09:57 -0.94885 108.84196 14028 ft 413 kts 33°
2026-04-25 09:57 -0.92456 108.85686 12886 ft 407 kts 33°
2026-04-25 09:57 -0.90063 108.87153 12136 ft 393 kts 33°
2026-04-25 09:57 -0.87780 108.88473 11923 ft 367 kts 28°
2026-04-25 09:58 -0.86271 108.89164 11746 ft 354 kts 24°
2026-04-25 09:58 -0.84023 108.89995 11544 ft 340 kts 21°
2026-04-25 09:58 -0.81772 108.90824 11322 ft 347 kts 22°
2026-04-25 09:58 -0.79513 108.91663 11096 ft 345 kts 22°
2026-04-25 09:59 -0.77254 108.92502 10908 ft 347 kts 21°
2026-04-25 09:59 -0.74990 108.93341 10865 ft 344 kts 21°
2026-04-25 09:59 -0.72752 108.94168 10861 ft 344 kts 21°
2026-04-25 09:59 -0.70524 108.94991 10865 ft 346 kts 21°
2026-04-25 10:00 -0.68265 108.95825 10862 ft 345 kts 21°
2026-04-25 10:00 -0.66010 108.96658 10861 ft 345 kts 21°
2026-04-25 10:00 -0.63756 108.97489 10863 ft 345 kts 21°
2026-04-25 10:00 -0.61497 108.98323 10861 ft 345 kts 21°
2026-04-25 10:01 -0.59243 108.99154 10863 ft 345 kts 21°
2026-04-25 10:01 -0.56996 108.99982 10867 ft 344 kts 21°
2026-04-25 10:01 -0.54770 109.00805 10861 ft 345 kts 21°
2026-04-25 10:01 -0.52515 109.01637 10855 ft 345 kts 21°
2026-04-25 10:02 -0.50261 109.02468 10865 ft 345 kts 21°
2026-04-25 10:02 -0.48014 109.03298 10865 ft 344 kts 21°
2026-04-25 10:02 -0.45766 109.04128 10860 ft 345 kts 21°
2026-04-25 10:02 -0.43509 109.04962 10862 ft 346 kts 21°
2026-04-25 10:03 -0.41256 109.05794 10857 ft 345 kts 21°
2026-04-25 10:03 -0.39001 109.06626 10859 ft 346 kts 21°
2026-04-25 10:03 -0.36746 109.07458 10860 ft 345 kts 21°
2026-04-25 10:03 -0.34489 109.08290 10856 ft 345 kts 21°
2026-04-25 10:04 -0.32235 109.09122 10865 ft 345 kts 21°
2026-04-25 10:04 -0.29979 109.09954 10863 ft 345 kts 21°
2026-04-25 10:04 -0.27727 109.10785 10856 ft 345 kts 21°
2026-04-25 10:04 -0.25472 109.11617 10859 ft 345 kts 21°
2026-04-25 10:05 -0.23243 109.12438 10869 ft 346 kts 21°
2026-04-25 10:05 -0.20931 109.13073 10859 ft 345 kts 12°
2026-04-25 10:05 -0.18549 109.13454 10614 ft 348 kts 10°
2026-04-25 10:05 -0.16163 109.13831 10214 ft 345 kts 10°
2026-04-25 10:06 -0.13803 109.14207 9816 ft 341 kts 10°
2026-04-25 10:06 -0.11463 109.14580 9401 ft 338 kts 10°
2026-04-25 10:06 -0.09148 109.14951 8869 ft 337 kts
2026-04-25 10:06 -0.06839 109.15320 8284 ft 333 kts
2026-04-25 10:07 -0.04580 109.15681 7719 ft 325 kts
2026-04-25 10:07 -0.02387 109.16066 7193 ft 315 kts 16°
2026-04-25 10:07 -0.00476 109.17028 6692 ft 304 kts 41°
2026-04-25 10:07 0.00814 109.18637 6219 ft 294 kts 65°
2026-04-25 10:08 0.01580 109.20503 5732 ft 287 kts 69°
2026-04-25 10:08 0.02278 109.22327 5234 ft 282 kts 69°
2026-04-25 10:08 0.02978 109.24153 4674 ft 281 kts 69°
2026-04-25 10:08 0.03683 109.25964 4129 ft 278 kts 68°
2026-04-25 10:09 0.04389 109.27748 3573 ft 274 kts 68°
2026-04-25 10:09 0.05050 109.29487 3323 ft 260 kts 76°
2026-04-25 10:09 0.04969 109.31197 3193 ft 240 kts 114°
2026-04-25 10:09 0.03936 109.32383 3074 ft 222 kts 150°
2026-04-25 10:10 0.02609 109.33024 3038 ft 200 kts 156°
2026-04-25 10:10 0.01402 109.33540 2973 ft 175 kts 157°
2026-04-25 10:10 0.00379 109.33973 2893 ft 149 kts 157°
2026-04-25 10:10 -0.00572 109.34378 2778 ft 151 kts 156°
2026-04-25 10:11 -0.01523 109.34781 2619 ft 147 kts 158°
2026-04-25 10:11 -0.02464 109.35179 2451 ft 146 kts 158°
2026-04-25 10:11 -0.03399 109.35574 2265 ft 146 kts 158°
2026-04-25 10:11 -0.04331 109.35968 2075 ft 145 kts 158°
2026-04-25 10:12 -0.05255 109.36372 1882 ft 144 kts 158°
2026-04-25 10:12 -0.06180 109.36753 1701 ft 143 kts 159°
2026-04-25 10:12 -0.08021 109.37507 1320 ft 141 kts 159°
2026-04-25 10:13 -0.08925 109.37878 1134 ft 140 kts 160°
2026-04-25 10:13 -0.09816 109.38242 950 ft 140 kts 159°
2026-04-25 10:13 -0.10718 109.38609 763 ft 140 kts 159°
2026-04-25 10:13 -0.11614 109.38976 581 ft 139 kts 159°
2026-04-25 10:14 -0.12504 109.39338 407 ft 138 kts 160°
2026-04-25 10:14 -0.13396 109.39698 240 ft 139 kts 159°
2026-04-25 10:14 -0.14290 109.40062 44 ft 136 kts 159°
2026-04-25 10:14 -0.15055 109.40375 32 ft 84 kts 157°
2026-04-25 10:15 -0.15340 109.40492 31 ft 23 kts 158°
2026-04-25 10:15 -0.15501 109.40557 30 ft 26 kts 158°
2026-04-25 10:15 -0.15680 109.40630 30 ft 29 kts 158°
2026-04-25 10:15 -0.15870 109.40707 29 ft 27 kts 157°
2026-04-25 10:16 -0.15978 109.40776 30 ft 13 kts 191°
2026-04-25 10:16 -0.15977 109.40751 29 ft 4 kts 333°
2026-04-25 10:16 -0.15926 109.40731 29 ft 12 kts 338°
2026-04-25 10:16 -0.15813 109.40686 29 ft 23 kts 338°
2026-04-25 10:17 -0.15632 109.40613 30 ft 33 kts 338°
2026-04-25 10:17 -0.15392 109.40514 31 ft 40 kts 337°
2026-04-25 10:17 -0.15150 109.40413 31 ft 31 kts 338°
2026-04-25 10:17 -0.14955 109.40335 31 ft 28 kts 338°
2026-04-25 10:18 -0.14862 109.40328 31 ft 9 kts 46°
2026-04-25 10:18 -0.14827 109.40377 32 ft 7 kts 11°
2026-04-25 10:18 -0.14824 109.40377 32 ft 0 kts
2026-04-25 10:18 -0.14814 109.40374 32 ft 3 kts 348°
2026-04-25 10:19 -0.14775 109.40360 31 ft 9 kts 337°
2026-04-25 10:19 -0.14727 109.40349 31 ft 5 kts 38°
2026-04-25 10:19 -0.14711 109.40378 31 ft 4 kts 66°
2026-04-25 10:19 -0.14705 109.40392 31 ft 0 kts 67°